DW3800 Weather Reports


time (UTC)temp
F
wind
direction
speed
knots
gust
knots
rain 1hr
in
rain 24hr
in
rain mn
in
humidity
%
barometer
mb
20260510145853 50 253 3.5 4.3 0.00 0.00 0.00 54 1022.5
20260510145349 50 303 1.7 5.2 0.00 0.00 0.00 54 1022.6
20260510144846 49 215 5.2 7.0 0.00 0.00 0.00 54 1022.5
20260510144343 50 202 1.7 2.6 0.00 0.00 0.00 54 1022.3
20260510143837 50 230 1.7 2.6 0.00 0.00 0.00 56 1022.4
20260510143333 49 275 0.9 0.9 0.00 0.00 0.00 57 1022.4
20260510142831 48 252 1.7 5.2 0.00 0.00 0.00 57 1022.4
20260510142327 49 248 2.6 2.6 0.00 0.00 0.00 57 1022.4
20260510141824 49 254 2.6 5.2 0.00 0.00 0.00 57 1022.5
20260510141322 49 276 4.3 7.0 0.00 0.00 0.00 57 1022.4
20260510140819 48 229 0.9 2.6 0.00 0.00 0.00 59 1022.2
20260510140314 48 199 3.5 5.2 0.00 0.00 0.00 58 1022.3
20260510135808 48 240 2.6 5.2 0.00 0.00 0.00 58 1021.9
20260510135306 49 164 0.9 2.6 0.00 0.00 0.00 57 1022.2
20260510134802 50 278 2.6 5.2 0.00 0.00 0.00 57 1022.2
20260510134258 49 34 0.0 1.7 0.00 0.00 0.00 56 1022.2
20260510133754 49 201 2.6 4.3 0.00 0.00 0.00 58 1022.0
20260510133250 49 291 0.9 5.2 0.00 0.00 0.00 58 1022.3
20260510132746 48 261 1.7 5.2 0.00 0.00 0.00 59 1022.0
20260510132244 48 260 3.5 7.0 0.00 0.00 0.00 59 1021.9
20260510131741 48 312 0.9 5.2 0.00 0.00 0.00 60 1022.0
20260510131239 48 303 1.7 2.6 0.00 0.00 0.00 61 1021.9
20260510130735 47 241 0.9 0.9 0.00 0.00 0.00 63 1022.0
20260510130232 46 276 0.9 1.7 0.00 0.00 0.00 63 1021.7
20260510125728 46 266 0.0 0.9 0.00 0.00 0.00 64 1021.8
20260510125224 46 220 0.0 0.9 0.00 0.00 0.00 65 1021.7
20260510124721 46 300 1.7 1.7 0.00 0.00 0.00 64 1021.7
20260510124219 45 231 0.0 0.9 0.00 0.00 0.00 65 1021.6
20260510123714 45 256 0.0 0.0 0.00 0.00 0.00 66 1021.5
20260510123210 44 219 0.9 0.9 0.00 0.00 0.00 66 1021.7
20260510122706 44 241 0.0 0.0 0.00 0.00 0.00 68 1021.6
20260510122203 44 258 0.0 0.0 0.00 0.00 0.00 68 1021.6
20260510121659 44 246 0.0 0.0 0.00 0.00 0.00 69 1021.4
20260510121156 43 267 0.0 0.0 0.00 0.00 0.00 70 1021.3
20260510120648 43 242 0.0 0.0 0.00 0.00 0.00 69 1021.4
20260510120144 43 250 0.9 0.9 0.00 0.00 0.00 69 1021.2
20260510115640 43 238 0.0 0.9 0.00 0.00 0.00 69 1021.3
20260510115139 43 194 0.0 0.9 0.00 0.00 0.00 69 1021.2
20260510114634 43 213 0.0 0.9 0.00 0.00 0.00 69 1020.9
20260510114130 43 246 0.0 0.9 0.00 0.00 0.00 69 1021.1
20260510113625 43 230 0.0 0.9 0.00 0.00 0.00 68 1021.0
20260510113123 43 214 0.9 0.9 0.00 0.00 0.00 68 1021.0
20260510112620 42 281 0.9 1.7 0.00 0.00 0.00 69 1020.8
20260510112116 42 230 0.0 0.9 0.00 0.00 0.00 69 1020.8
20260510111612 42 248 0.0 1.7 0.00 0.00 0.00 69 1020.8
20260510111108 42 243 0.0 0.0 0.00 0.00 0.00 70 1020.8
20260510110604 41 232 0.9 0.9 0.00 0.00 0.00 71 1020.7
20260510105557 41 246 0.0 0.0 0.00 0.00 0.00 70 1020.4
20260510105052 42 289 0.0 0.9 0.00 0.00 0.00 71 1020.2
20260510104549 42 330 0.0 0.0 0.00 0.00 0.00 70 1020.4
20260510104045 42 287 0.0 0.9 0.00 0.00 0.00 68 1020.2
20260510103542 42 265 0.0 0.0 0.00 0.00 0.00 69 1020.3
20260510103038 42 248 0.0 0.9 0.00 0.00 0.00 69 1020.1
20260510102534 42 259 0.0 1.7 0.00 0.00 0.00 68 1020.0
20260510102030 42 236 0.0 0.0 0.00 0.00 0.00 69 1020.1
20260510101528 42 235 0.0 0.0 0.00 0.00 0.00 69 1020.0
20260510101027 42 237 0.0 0.0 0.00 0.00 0.00 68 1019.8
20260510100522 42 238 0.0 1.7 0.00 0.00 0.00 67 1020.0
20260510100020 42 240 0.0 1.7 0.00 0.00 0.00 67 1019.7
20260510095515 42 223 0.9 0.9 0.00 0.00 0.00 68 1019.6
20260510095014 42 247 0.0 0.0 0.00 0.00 0.00 67 1019.5
20260510094509 43 246 0.9 0.9 0.00 0.00 0.00 65 1019.5
20260510094005 43 235 0.0 0.9 0.00 0.00 0.00 65 1019.7
20260510093501 42 256 0.0 0.9 0.00 0.00 0.00 66 1019.4
20260510092958 42 230 0.0 0.9 0.00 0.00 0.00 66 1019.5
20260510092455 42 247 0.0 0.0 0.00 0.00 0.00 66 1019.2
20260510091954 43 248 0.0 0.0 0.00 0.00 0.00 66 1019.2
20260510091451 43 231 0.9 0.9 0.00 0.00 0.00 63 1019.3
20260510090947 43 219 0.9 0.9 0.00 0.00 0.00 63 1019.2
20260510090445 42 225 0.0 0.9 0.00 0.00 0.00 64 1019.3
20260510085940 42 221 0.0 0.9 0.00 0.00 0.00 64 1019.1
20260510085435 40 226 0.0 0.9 0.00 0.00 0.00 67 1019.1
20260510084931 40 278 0.0 0.0 0.00 0.00 0.00 70 1018.8
20260510084428 40 278 0.0 0.0 0.00 0.00 0.00 69 1019.0
20260510083925 40 304 0.0 0.0 0.00 0.00 0.00 72 1018.8
20260510083421 41 305 0.0 0.0 0.00 0.00 0.00 72 1018.6
20260510082916 41 306 0.0 0.0 0.00 0.00 0.00 71 1018.4
20260510082415 41 287 0.0 0.0 0.00 0.00 0.00 69 1018.8
20260510081913 41 285 0.0 0.0 0.00 0.00 0.00 70 1018.5
20260510081409 40 248 0.0 0.0 0.00 0.00 0.00 69 1018.5
20260510080906 40 247 0.0 0.0 0.00 0.00 0.00 68 1018.3
20260510080400 40 248 0.0 0.0 0.00 0.00 0.00 67 1018.3
20260510075858 41 247 0.0 0.0 0.00 0.00 0.00 66 1018.4
20260510075356 41 247 0.0 0.0 0.00 0.00 0.00 65 1018.4
20260510074851 41 247 0.0 0.0 0.00 0.00 0.00 64 1018.4
20260510074349 41 247 0.0 0.0 0.00 0.00 0.00 64 1018.3
20260510073845 42 247 0.0 0.0 0.00 0.00 0.00 62 1018.2
20260510073341 42 268 0.0 0.0 0.00 0.00 0.00 63 1018.1
20260510072837 41 269 0.0 0.0 0.00 0.00 0.00 63 1018.2
20260510072334 42 269 0.0 0.0 0.00 0.00 0.00 61 1018.2
20260510071830 42 269 0.0 0.0 0.00 0.00 0.00 62 1018.2
20260510071326 43 234 0.0 0.0 0.00 0.00 0.00 61 1018.3
20260510070826 43 234 0.0 0.0 0.00 0.00 0.00 60 1018.3
20260510070321 42 234 0.0 0.0 0.00 0.00 0.00 60 1018.3
20260510065816 42 233 0.0 0.0 0.00 0.00 0.00 60 1018.4
20260510065313 42 234 0.0 0.0 0.00 0.00 0.00 60 1018.3
20260510064810 42 229 0.0 0.0 0.00 0.00 0.00 59 1018.1
20260510064308 43 229 0.0 0.0 0.00 0.00 0.00 58 1018.2
20260510063803 44 236 0.0 0.0 0.00 0.00 0.00 57 1018.2
20260510063300 44 196 0.0 0.9 0.00 0.00 0.00 56 1018.2
20260510062756 45 209 0.0 1.7 0.00 0.00 0.00 56 1018.0
20260510062252 45 237 0.0 0.0 0.00 0.00 0.00 56 1018.2
20260510061748 44 242 0.0 0.9 0.00 0.00 0.00 56 1018.2
20260510061245 44 246 0.0 0.0 0.00 0.00 0.00 56 1018.1
20260510060741 44 247 0.0 0.9 0.00 0.00 0.00 56 1018.1
20260510060238 44 268 0.0 0.0 0.00 0.00 0.00 57 1018.3
20260510055735 44 244 0.0 0.0 0.00 0.00 0.00 57 1018.1
20260510055233 45 247 0.0 0.0 0.00 0.00 0.00 57 1018.1
20260510054732 44 244 0.0 0.0 0.00 0.00 0.00 55 1018.1
20260510054229 45 254 0.0 0.0 0.00 0.00 0.00 54 1018.2
20260510053728 46 254 0.0 0.0 0.00 0.00 0.00 54 1017.9
20260510053225 46 229 0.0 0.0 0.00 0.00 0.00 54 1017.8
20260510052720 46 254 0.0 0.0 0.00 0.00 0.00 52 1017.9
20260510052217 47 214 0.0 0.9 0.00 0.00 0.00 51 1017.9
20260510051713 47 208 0.0 0.9 0.00 0.00 0.00 52 1017.9
20260510051209 47 230 0.0 0.0 0.00 0.00 0.00 51 1017.7
20260510050707 48 248 0.0 0.0 0.00 0.00 0.00 49 1017.7
20260510050204 48 235 0.0 0.9 0.00 0.00 0.00 49 1017.7
20260510045701 49 235 0.0 0.9 0.00 0.00 0.00 49 1017.8
20260510045157 49 243 0.0 0.9 0.00 0.00 0.00 48 1017.7
20260510044653 49 234 0.9 0.9 0.00 0.00 0.00 47 1017.7
20260510044151 49 162 1.7 1.7 0.00 0.00 0.00 47 1017.7
20260510043646 50 240 1.7 5.2 0.00 0.00 0.00 46 1017.5
20260510043143 50 171 0.0 0.9 0.00 0.00 0.00 46 1017.7
20260510042641 50 267 0.9 1.7 0.00 0.00 0.00 46 1017.8
20260510042137 50 257 0.9 1.7 0.00 0.00 0.00 45 1017.8
20260510041634 51 244 0.9 2.6 0.00 0.00 0.00 45 1017.6
20260510041131 51 263 0.9 4.3 0.00 0.00 0.00 45 1017.6
20260510040628 51 249 0.9 1.7 0.00 0.00 0.00 45 1017.5
20260510040125 51 267 2.6 6.1 0.00 0.00 0.00 45 1017.3
20260510035620 51 240 0.0 1.7 0.00 0.00 0.00 46 1017.3
20260510035115 51 213 1.7 4.3 0.00 0.00 0.00 44 1017.4
20260510034613 51 241 0.9 1.7 0.00 0.00 0.00 45 1017.1
20260510034110 51 211 0.9 1.7 0.00 0.00 0.00 44 1017.1
20260510033606 51 233 0.9 2.6 0.00 0.00 0.00 44 1017.1
20260510033104 51 252 0.9 1.7 0.00 0.00 0.00 45 1017.1
20260510032600 51 221 0.0 0.9 0.00 0.00 0.00 45 1017.0
20260510032055 51 306 1.7 2.6 0.00 0.00 0.00 44 1016.8
20260510031550 51 292 0.0 1.7 0.00 0.00 0.00 44 1016.7
20260510031047 51 222 0.9 0.9 0.00 0.00 0.00 43 1016.9
20260510030542 52 222 0.0 0.9 0.00 0.00 0.00 43 1016.6
20260510030040 52 230 1.7 1.7 0.00 0.00 0.00 42 1016.5
20260510025536 52 235 0.9 1.7 0.00 0.00 0.00 43 1016.6
20260510025034 52 244 0.9 1.7 0.00 0.00 0.00 42 1016.3
20260510024531 53 103 0.9 4.3 0.00 0.00 0.00 42 1016.1
20260510024027 53 258 0.9 1.7 0.00 0.00 0.00 41 1016.5
20260510023523 53 220 0.0 2.6 0.00 0.00 0.00 41 1016.1
20260510023021 53 272 0.9 1.7 0.00 0.00 0.00 40 1016.1
20260510022520 53 245 0.0 0.9 0.00 0.00 0.00 40 1015.8
20260510022014 53 247 2.6 5.2 0.00 0.00 0.00 39 1015.7
20260510021511 53 222 0.9 5.2 0.00 0.00 0.00 41 1015.6
20260510021008 53 259 0.9 1.7 0.00 0.00 0.00 40 1015.6
20260510020503 53 209 0.9 1.7 0.00 0.00 0.00 40 1015.5
20260510015958 54 225 1.7 2.6 0.00 0.00 0.00 39 1015.1
20260510015454 54 140 1.7 4.3 0.00 0.00 0.00 38 1015.0
20260510014950 54 222 0.9 4.3 0.00 0.00 0.00 38 1014.9
20260510014448 54 225 1.7 2.6 0.00 0.00 0.00 38 1014.8
20260510013944 54 222 0.9 1.7 0.00 0.00 0.00 39 1014.9
20260510013438 54 246 0.9 5.2 0.00 0.00 0.00 38 1014.7
20260510012935 54 232 3.5 4.3 0.00 0.00 0.00 38 1014.5
20260510012429 54 196 2.6 4.3 0.00 0.00 0.00 38 1014.5
20260510011925 55 264 0.9 1.7 0.00 0.00 0.00 38 1014.5
20260510011420 55 227 4.3 6.1 0.00 0.00 0.00 36 1014.5
20260510010916 55 258 1.7 5.2 0.00 0.00 0.00 36 1014.4
20260510010414 55 252 2.6 2.6 0.00 0.00 0.00 36 1014.2
20260510005910 56 199 2.6 4.3 0.00 0.00 0.00 36 1014.1
20260510005406 56 322 2.6 6.1 0.00 0.00 0.00 35 1014.0
20260510004904 56 245 3.5 5.2 0.00 0.00 0.00 35 1014.0
20260510004401 57 212 0.9 4.3 0.00 0.00 0.00 35 1014.0
20260510003859 58 277 2.6 5.2 0.00 0.00 0.00 34 1014.1
20260510003356 58 148 1.7 4.3 0.00 0.00 0.00 34 1014.0
20260510002854 57 242 2.6 4.3 0.00 0.00 0.00 34 1014.0
20260510002352 58 250 0.9 4.3 0.00 0.00 0.00 34 1013.6
20260510001848 58 201 7.8 12.2 0.00 0.00 0.00 33 1013.6
20260510001346 58 208 4.3 6.1 0.00 0.00 0.00 33 1013.8
20260510000843 58 130 1.7 4.3 0.00 0.00 0.00 34 1013.7
20260510000341 57 146 1.7 8.7 0.00 0.00 0.00 35 1013.7
20260509235836 58 244 2.6 7.0 0.00 0.00 0.00 34 1013.7
20260509235333 58 237 2.6 4.3 0.00 0.00 0.00 34 1013.7
20260509234829 58 269 3.5 6.1 0.00 0.00 0.00 34 1013.4
20260509234326 58 237 2.6 7.8 0.00 0.00 0.00 34 1013.4
20260509233824 59 207 3.5 7.8 0.00 0.00 0.00 35 1013.4
20260509233321 58 246 3.5 7.0 0.00 0.00 0.00 34 1013.2
20260509232817 58 223 3.5 6.1 0.00 0.00 0.00 35 1013.3
20260509232315 58 219 5.2 7.8 0.00 0.00 0.00 35 1013.1
20260509231811 58 210 5.2 7.8 0.00 0.00 0.00 35 1013.0
20260509231308 58 200 4.3 8.7 0.00 0.00 0.00 35 1013.3
20260509230806 58 254 2.6 5.2 0.00 0.00 0.00 35 1013.1
20260509230302 58 184 2.6 7.0 0.00 0.00 0.00 34 1013.0
20260509225757 58 250 1.7 2.6 0.00 0.00 0.00 35 1012.8
20260509225254 58 224 4.3 7.0 0.00 0.00 0.00 33 1012.9
20260509224750 59 284 4.3 7.0 0.00 0.00 0.00 33 1012.9
20260509224247 59 197 1.7 7.0 0.00 0.00 0.00 33 1012.8
20260509223744 59 232 5.2 8.7 0.00 0.00 0.00 32 1012.8
20260509223241 58 265 4.3 8.7 0.00 0.00 0.00 31 1012.9
20260509222737 59 231 5.2 8.7 0.00 0.00 0.00 31 1012.9
20260509222233 59 231 2.6 9.6 0.00 0.00 0.00 32 1012.6
20260509221728 59 231 2.6 4.3 0.00 0.00 0.00 33 1012.6
20260509221225 59 231 4.3 5.2 0.00 0.00 0.00 33 1012.7
20260509220721 59 240 1.7 11.3 0.00 0.00 0.00 32 1012.6
20260509220217 60 289 6.1 8.7 0.00 0.00 0.00 31 1012.6
20260509215713 60 251 6.1 8.7 0.00 0.00 0.00 31 1012.6
20260509215210 59 65 1.7 7.0 0.00 0.00 0.00 33 1012.5
20260509214707 59 269 4.3 7.8 0.00 0.00 0.00 33 1012.6
20260509214204 60 284 3.5 5.2 0.00 0.00 0.00 34 1012.5
20260509213701 59 31 1.7 7.0 0.00 0.00 0.00 34 1012.2
20260509213156 60 303 2.6 5.2 0.00 0.00 0.00 33 1012.2
20260509212654 60 168 2.6 7.0 0.00 0.00 0.00 32 1012.5
20260509212151 60 222 3.5 7.0 0.00 0.00 0.00 32 1012.3
20260509211647 60 260 1.7 4.3 0.00 0.00 0.00 33 1012.1
20260509211144 59 232 3.5 5.2 0.00 0.00 0.00 33 1012.2
20260509210641 59 277 7.0 7.8 0.00 0.00 0.00 33 1012.0
20260509210137 59 224 3.5 7.8 0.00 0.00 0.00 33 1012.0
20260509205633 60 260 5.2 7.8 0.00 0.00 0.00 32 1012.1
20260509205127 60 325 2.6 7.8 0.00 0.00 0.00 34 1012.0
20260509204623 60 264 3.5 7.8 0.00 0.00 0.00 34 1012.0
20260509204120 60 230 3.5 9.6 0.00 0.00 0.00 33 1011.8
20260509203616 60 314 2.6 6.1 0.00 0.00 0.00 33 1012.0
20260509203115 60 128 1.7 7.8 0.00 0.00 0.00 38 1011.7
20260509202609 59 317 4.3 8.7 0.00 0.00 0.00 34 1011.8
20260509202104 59 182 0.9 8.7 0.00 0.00 0.00 34 1012.0
20260509201559 59 277 7.0 12.2 0.00 0.00 0.00 33 1011.7
20260509201057 59 209 3.5 8.7 0.00 0.00 0.00 34 1011.7
20260509200557 60 193 0.9 6.1 0.00 0.00 0.00 35 1011.7
20260509200053 59 150 5.2 14.8 0.00 0.00 0.00 34 1011.7
20260509195549 59 236 7.8 13.0 0.00 0.00 0.00 32 1011.6
20260509195044 58 230 2.6 7.8 0.00 0.00 0.00 34 1011.5
20260509194538 59 248 5.2 11.3 0.00 0.00 0.00 33 1011.6
20260509194036 60 213 6.1 8.7 0.00 0.00 0.00 34 1011.7
20260509193537 60 279 4.3 8.7 0.00 0.00 0.00 35 1011.6
20260509193033 59 232 0.0 2.6 0.00 0.00 0.00 36 1011.6
20260509192530 59 224 7.0 11.3 0.00 0.00 0.00 33 1011.4
20260509192025 59 289 2.6 5.2 0.00 0.00 0.00 35 1011.5
20260509191520 58 13 4.3 8.7 0.00 0.00 0.00 36 1011.2
20260509191016 58 207 9.6 13.0 0.00 0.00 0.00 36 1011.2
20260509190513 59 106 0.9 6.1 0.00 0.00 0.00 38 1011.1
20260509190011 57 155 3.5 6.1 0.00 0.00 0.00 38 1011.2
20260509185508 58 247 4.3 8.7 0.00 0.00 0.00 39 1011.0
20260509185004 57 199 4.3 6.1 0.00 0.00 0.00 38 1011.2
20260509184503 57 224 4.3 7.0 0.00 0.00 0.00 38 1011.3
20260509183958 58 239 5.2 7.8 0.00 0.00 0.00 38 1011.1
20260509183453 57 164 1.7 8.7 0.00 0.00 0.00 40 1011.1
20260509182949 57 246 4.3 11.3 0.00 0.00 0.00 41 1010.6
20260509182446 58 213 10.4 13.9 0.00 0.00 0.00 40 1010.8
20260509181944 57 241 4.3 15.6 0.00 0.00 0.00 38 1011.0
20260509181441 57 272 6.1 8.7 0.00 0.00 0.00 43 1010.8
20260509180939 57 256 2.6 7.8 0.00 0.00 0.00 43 1010.7
20260509180434 57 220 5.2 8.7 0.00 0.00 0.00 41 1010.7
20260509175931 57 271 6.1 7.0 0.00 0.00 0.00 41 1010.7
20260509175427 58 243 1.7 6.1 0.00 0.00 0.00 42 1010.7
20260509174924 56 246 4.3 8.7 0.00 0.00 0.00 43 1010.7
20260509174420 56 244 4.3 7.8 0.00 0.00 0.00 46 1010.8
20260509173916 56 251 7.8 12.2 0.00 0.00 0.00 45 1010.5
20260509173415 56 186 2.6 6.1 0.00 0.00 0.00 46 1010.7
20260509172912 56 50 0.9 6.1 0.00 0.00 0.00 49 1010.5
20260509172409 56 246 4.3 8.7 0.00 0.00 0.00 46 1010.7
20260509171905 56 264 5.2 7.8 0.00 0.00 0.00 47 1010.5
20260509171401 54 219 3.5 7.8 0.00 0.00 0.00 48 1010.4
20260509170857 55 139 2.6 6.1 0.00 0.00 0.00 48 1010.5
20260509170353 55 138 6.1 13.9 0.00 0.00 0.00 47 1010.4
20260509165848 55 270 2.6 7.0 0.00 0.00 0.00 48 1010.3
20260509165343 56 205 3.5 13.0 0.00 0.00 0.00 46 1010.3
20260509164839 56 238 1.7 9.6 0.00 0.00 0.00 46 1010.1
20260509164335 56 288 3.5 7.8 0.00 0.00 0.00 46 1010.3
20260509163831 56 309 7.0 7.8 0.00 0.00 0.00 47 1010.2
20260509163328 56 189 6.1 9.6 0.00 0.00 0.00 47 1010.1
20260509162827 56 252 5.2 11.3 0.00 0.00 0.00 46 1010.0
20260509162320 56 212 0.9 6.1 0.00 0.00 0.00 46 1010.0
20260509161817 57 262 6.1 13.9 0.00 0.00 0.00 45 1009.8
20260509161313 56 252 3.5 9.6 0.00 0.00 0.00 46 1010.0
20260509160809 55 299 6.1 8.7 0.00 0.00 0.00 45 1009.6
20260509160305 55 292 5.2 7.0 0.00 0.00 0.00 45 1009.9
20260509155800 55 229 5.2 14.8 0.00 0.00 0.00 45 1009.8
20260509155257 56 232 6.1 9.6 0.00 0.00 0.00 46 1009.5
20260509154753 56 222 1.7 12.2 0.00 0.00 0.00 48 1009.8
20260509154250 55 196 1.7 6.1 0.00 0.00 0.00 51 1009.5
20260509153747 57 322 3.5 9.6 0.00 0.00 0.00 50 1009.6
20260509153243 56 183 5.2 8.7 0.00 0.00 0.00 51 1009.3
20260509152740 55 315 2.6 6.1 0.00 0.00 0.00 52 1009.4
20260509152236 55 231 2.6 7.8 0.00 0.00 0.00 53 1009.2
20260509151733 55 303 5.2 7.8 0.00 0.00 0.00 54 1009.1
20260509151230 55 281 1.7 5.2 0.00 0.00 0.00 54 1009.3
20260509150728 55 353 1.7 4.3 0.00 0.00 0.00 57 1009.2
20260509150226 54 258 3.5 6.1 0.00 0.00 0.00 57 1009.1